Location: *
(46.4000°N, 12.6667°E)
Time: 11:08:08
(UTC+00:00)

N. Korean satellite - Visible Passes

Search period start: 27 September 2022 00:00
Search period end: 07 October 2022 00:00
Orbit: 427 x 468 km, 97.3° (Epoch: 26 September)

Date Brightness Start Highest point End Pass type
(mag) Time Alt. Az. Time Alt. Az. Time Alt. Az.
27 Sep 7.8 04:08:58 10° NNE 04:12:06 41° E 04:15:12 10° S visible
28 Sep 9.6 03:34:16 10° NE 03:36:15 15° E 03:38:13 10° SE visible
29 Sep 6.4 04:30:13 10° NNE 04:33:30 83° E 04:36:46 10° S visible
30 Sep 8.7 03:54:52 10° NE 03:57:43 26° E 04:00:32 10° SSE visible
02 Oct 7.3 04:15:47 10° NNE 04:18:59 51° E 04:22:10 10° S visible
03 Oct 9.5 03:40:43 10° NE 03:43:02 18° E 03:45:21 10° SE visible
04 Oct 6.2 04:36:48 10° N 04:40:06 80° W 04:43:21 10° SSW visible
05 Oct 8.3 04:01:11 10° NNE 04:04:11 32° E 04:07:09 10° SSE visible
06 Oct 9.8 03:26:45 10° ENE 03:28:05 12° E 03:29:24 10° ESE visible
